This is the latest recevied weather packets stored in our database for station/object N4BBA. If no packets are shown the sender has not sent any weather packets the latest 1 day(s).
| Time | Temp. | Humidity | Pressure | Rain* | Wind** | Luminosity | Snow |
|---|---|---|---|---|---|---|---|
| 1778034969 | 19.44° C | 71% | 1015.9 hPa | 0 mm | 1.79 m/s, 175° | 0 W/m² | - |
| 1778034667 | 19.44° C | 71% | 1015.6 hPa | 0 mm | 1.79 m/s, 169° | 0 W/m² | - |
| 1778034364 | 19.44° C | 70% | 1015.8 hPa | 0 mm | 2.24 m/s, 211° | 0 W/m² | - |
| 1778034061 | 19.44° C | 70% | 1015.8 hPa | 0 mm | 1.79 m/s, 124° | 0 W/m² | - |
| 1778033759 | 20° C | 69% | 1015.5 hPa | 0 mm | 2.68 m/s, 152° | 0 W/m² | - |
| 1778033456 | 20° C | 68% | 1015.5 hPa | 0 mm | 1.34 m/s, 198° | 0 W/m² | - |
| 1778033153 | 20° C | 68% | 1015.4 hPa | 0 mm | 1.79 m/s, 195° | 0 W/m² | - |
| 1778032850 | 20° C | 67% | 1015.4 hPa | 0 mm | 2.24 m/s, 108° | 0 W/m² | - |
| 1778032548 | 20° C | 67% | 1015.3 hPa | 0 mm | 1.79 m/s, 184° | 0 W/m² | - |
| 1778032244 | 20° C | 66% | 1015.2 hPa | 0 mm | 1.79 m/s, 157° | 0 W/m² | - |
| 1778031942 | 20.56° C | 65% | 1015.2 hPa | 0 mm | 1.34 m/s, 153° | 0 W/m² | - |
| 1778031638 | 20.56° C | 65% | 1015 hPa | 0 mm | 2.68 m/s, 178° | 0 W/m² | - |
| 1778031336 | 20.56° C | 65% | 1015.1 hPa | 0 mm | 1.79 m/s, 156° | 0 W/m² | - |
| 1778031032 | 20.56° C | 64% | 1015 hPa | 0 mm | 0.89 m/s, 145° | 0 W/m² | - |
| 1778030729 | 20.56° C | 64% | 1015 hPa | 0 mm | 4.02 m/s, 98° | 0 W/m² | - |
| 1778030426 | 20.56° C | 63% | 1015 hPa | 0 mm | 2.68 m/s, 168° | 0 W/m² | - |
| 1778030128 | 21.11° C | 63% | 1014.8 hPa | 0 mm | 1.79 m/s, 209° | 0 W/m² | - |
| 1778029819 | 21.11° C | 63% | 1014.9 hPa | 0 mm | 2.68 m/s, 166° | 0 W/m² | - |
| 1778029519 | 21.11° C | 62% | 1014.9 hPa | 0 mm | 1.79 m/s, 144° | 0 W/m² | - |
| 1778029215 | 21.11° C | 62% | 1014.7 hPa | 0 mm | 2.24 m/s, 193° | 0 W/m² | - |
| 1778028912 | 21.11° C | 62% | 1014.6 hPa | 0 mm | 1.79 m/s, 150° | 0 W/m² | - |
| 1778028608 | 21.67° C | 61% | 1014.6 hPa | 0 mm | 0.89 m/s, 134° | 0 W/m² | - |
| 1778028306 | 21.67° C | 61% | 1014.5 hPa | 0 mm | 1.34 m/s, 156° | 0 W/m² | - |
| 1778028002 | 21.67° C | 60% | 1014.4 hPa | 0 mm | 3.58 m/s, 153° | 0 W/m² | - |
| 1778027698 | 21.67° C | 60% | 1014.5 hPa | 0 mm | 1.34 m/s, 181° | 0 W/m² | - |
* Rain latest hour (hover to see other rain measurements)
** Current wind speed in m/s (hover to see current wind gust speed)